Location: Newark
(0.5300°S, 127.4800°E)
Time: 05:07:25
(UTC+00:00)

Vanguard 3 - Pass Details

Date: 23 September 2019
Orbit: 508 x 3262 km, 33.3° (Epoch: 15 October)

Event Time Altitude Azimuth Distance (km) Brightness Sun altitude
Rises 19:32:43 0° 245° (WSW) 3,485 - -27.4°
Reaches altitude 10° 19:34:48 10° 249° (WSW) 2,777 - -26.9°
Exits shadow 19:39:28 48° 279° (W) 1,653 8.2 -25.7°
Maximum altitude 19:41:33 61° 329° (NNW) 1,619 8.4 -25.2°
Drops below altitude 10° 19:53:52 10° 46° (NE) 4,864 11.7 -22.1°
Sets 19:58:46 0° 49° (NE) 6,293 12.4 -20.9°
